SCP
0 0 0 1 1 1 1 1 0 0 0 0 0 0 0 0 0 0 0 0 0 0
0 0 0 0 0 0 0 0 0 0 0 0 0 0 0 0 0 0 0 0 0 0
0 0 0 0 0 0 0 0 0 0 0 0 0 0 0 0 0 0 0 0 0 0
0 0 0 0 0 0 0 0 0 0 0 0 0 0 0 0 0 0 0 0 0 0
0 0 0 0 0 0 0 0 0 0 0 0 0 0 0 0 0 0 0 0 0 0
0 0 0 0 0 0 0 0 0 0 0 0 0 0 0 0 0 0 0 0 0 0
0 0 0 0 0 0 0 0 0 0 0 0 0 0 0 0 0 0 0 0 0 0
0 0 0 0 0 0 0 0 0 0 0 0 0 0 0 0 0 0 0 0 0 0
0 0 0 0 0 0 0 0 0 0 0 0 0 0 0 0 0 0 0 0 0 0
0 0 0 0 0 0 0 0 0 0 0 0 0 0 0 0 0 0 0 0 0 0
0 0 0 0 0 0 0 0 0 0 0 0 0 0 0 0 0 0 0 0 0 0
0 0 0 0 0 0 0 0 0 0 0 0 0 0 0 0 0 0 0 0 0 0
0 0 0 0 0 0 0 0 0 0 0 0 0 0 0 0 0 0 0 0 0 0
0 0 0 0 0 0 0 0 0 0 0 0 0 0 0 0 0 0 0 0 0 0
Wind_Speed_500mb
69 70 74 72 70 67 69 73 74 73 73 68 66 64 63 62 61 59 63 61 62 61
65 69 69 68 64 60 60 61 68 74 69 66 65 66 66 67 66 65 69 70 70 68
59 61 64 63 62 64 63 63 62 62 63 63 65 66 66 67 66 65 66 64 68 66
36 43 45 46 47 48 49 51 52 54 55 58 61 64 66 65 65 61 63 61 69 60
17 21 25 28 31 33 37 41 46 50 54 57 59 60 60 62 58 57 61 63 56 64
19 20 22 25 28 31 36 39 42 46 50 52 53 56 56 55 53 56 60 59 61 60
25 25 28 31 33 35 38 41 44 46 49 51 53 53 51 54 57 58 60 63 62 63
28 30 32 34 38 41 44 46 49 51 54 55 57 59 58 58 60 63 63 64 66 66
48 49 49 49 48 51 53 55 58 60 62 63 65 67 65 64 65 66 68 68 67 67
50 55 60 62 65 67 66 67 69 69 69 70 71 71 70 70 71 70 70 70 69 68
49 54 58 63 68 70 72 75 77 76 75 74 74 75 74 74 74 74 73 72 70 69
49 52 58 64 66 70 73 76 77 79 80 79 78 79 78 78 74 76 76 74 72 73
53 55 58 63 68 71 71 73 77 81 82 82 82 82 81 80 76 77 78 78 76 77
57 59 58 60 64 68 73 75 74 77 82 85 85 84 82 82 78 78 81 81 79 78
Wind_Direction_500mb
253 253 251 248 248 246 249 251 252 246 245 246 250 252 254 253 252 246 247 249 248 251
245 242 244 245 244 244 242 244 250 249 245 248 253 253 252 255 254 249 248 248 249 248
248 249 248 246 245 248 248 250 251 252 252 253 253 254 255 255 255 253 247 249 252 249
265 261 260 259 257 257 253 252 252 252 253 255 257 258 257 256 252 245 245 243 251 252
293 276 266 261 259 257 257 257 258 258 258 257 256 257 255 253 248 243 245 244 249 249
317 296 281 271 265 260 258 256 255 254 253 253 253 253 251 250 242 242 250 244 246 245
339 325 313 302 291 278 269 263 259 257 255 254 254 255 251 247 245 244 245 251 245 247
300 299 299 295 289 285 279 272 266 262 260 258 255 255 254 253 253 253 252 251 250 250
294 289 287 283 283 279 275 271 268 265 261 258 256 255 253 253 253 254 253 252 250 249
296 288 283 282 282 282 278 273 269 266 264 263 261 260 259 257 255 255 254 253 251 248
291 288 286 282 278 278 278 278 276 273 269 267 264 262 260 259 258 255 252 250 249 246
301 297 289 285 285 282 279 276 275 275 274 272 270 268 264 260 255 252 250 247 243 240
306 298 294 292 288 281 277 276 274 271 270 270 269 268 265 261 255 250 246 243 240 238
309 306 299 292 289 288 285 280 274 271 269 268 266 265 263 259 253 249 246 244 241 239
Wind_Speed_850mb
69 70 74 72 70 67 69 73 74 73 73 68 66 64 63 62 61 59 63 61 62 61
65 69 69 68 64 60 60 61 68 74 69 66 65 66 66 67 66 65 69 70 70 68
59 61 64 63 62 64 63 63 62 62 63 63 65 66 66 67 66 65 66 64 68 66
36 43 45 46 47 48 49 51 52 54 55 58 61 64 66 65 65 61 63 61 69 60
17 21 25 28 31 33 37 41 46 50 54 57 59 60 60 62 58 57 61 63 56 64
19 20 22 25 28 31 36 39 42 46 50 52 53 56 56 55 53 56 60 59 61 60
25 25 28 31 33 35 38 41 44 46 49 51 53 53 51 54 57 58 60 63 62 63
28 30 32 34 38 41 44 46 49 51 54 55 57 59 58 58 60 63 63 64 66 66
48 49 49 49 48 51 53 55 58 60 62 63 65 67 65 64 65 66 68 68 67 67
50 55 60 62 65 67 66 67 69 69 69 70 71 71 70 70 71 70 70 70 69 68
49 54 58 63 68 70 72 75 77 76 75 74 74 75 74 74 74 74 73 72 70 69
49 52 58 64 66 70 73 76 77 79 80 79 78 79 78 78 74 76 76 74 72 73
53 55 58 63 68 71 71 73 77 81 82 82 82 82 81 80 76 77 78 78 76 77
57 59 58 60 64 68 73 75 74 77 82 85 85 84 82 82 78 78 81 81 79 78
Wind_Direction_850mb
253 253 251 248 248 246 249 251 252 246 245 246 250 252 254 253 252 246 247 249 248 251
245 242 244 245 244 244 242 244 250 249 245 248 253 253 252 255 254 249 248 248 249 248
248 249 248 246 245 248 248 250 251 252 252 253 253 254 255 255 255 253 247 249 252 249
265 261 260 259 257 257 253 252 252 252 253 255 257 258 257 256 252 245 245 243 251 252
293 276 266 261 259 257 257 257 258 258 258 257 256 257 255 253 248 243 245 244 249 249
317 296 281 271 265 260 258 256 255 254 253 253 253 253 251 250 242 242 250 244 246 245
339 325 313 302 291 278 269 263 259 257 255 254 254 255 251 247 245 244 245 251 245 247
300 299 299 295 289 285 279 272 266 262 260 258 255 255 254 253 253 253 252 251 250 250
294 289 287 283 283 279 275 271 268 265 261 258 256 255 253 253 253 254 253 252 250 249
296 288 283 282 282 282 278 273 269 266 264 263 261 260 259 257 255 255 254 253 251 248
291 288 286 282 278 278 278 278 276 273 269 267 264 262 260 259 258 255 252 250 249 246
301 297 289 285 285 282 279 276 275 275 274 272 270 268 264 260 255 252 250 247 243 240
306 298 294 292 288 281 277 276 274 271 270 270 269 268 265 261 255 250 246 243 240 238
309 306 299 292 289 288 285 280 274 271 269 268 266 265 263 259 253 249 246 244 241 239